XRISM

Last updated on Wed Jul 02 2025 00:02:15 GMT+0000 (Coordinated Universal Time)

1 57800U 23137A 25182.47454683 .00004049 00000+0 24947-3 0 9990 2 57800 31.0019 104.1347 0007878 34.7627 325.3524 15.08215556 99791
UTC large
Height (km)
Speed (km/s)
/
Latitude / Longitude
Inclination (degrees)
Orbital Period (minutes)
Azimuth
Elevation
Range (km)
Doppler Factor

Next 0 passes for location: London (51.5072 / 0.1276)

Sorry there are no passes over London.